Hutchinson, KS

2:26 PM CST on November 21, 2019 (GMT -0600)
Hutchinson Municipal

Weather History for KHUT - October, 2019

Change the Weather History Date:

Tuesday, October 22, 2019

  Actual Average Record
Temperature  
Mean Temperature 50 °F -  
Max Temperature 66 °F 65 °F 86 °F (2003)
Min Temperature 34 °F 41 °F 25 °F (2006)
Degree Days  
Heating Degree Days 15    
Moisture  
Dew Point 27 °F    
Average Humidity 47    
Maximum Humidity 73    
Minimum Humidity 19    
Precipitation  
Precipitation 0.00 in - - ()
Sea Level Pressure  
Sea Level Pressure 30.04 in    
Wind  
Wind Speed 10 mph (West)    
Max Wind Speed 21 mph    
Max Gust Speed 30 mph    
Visibility 10 miles    
Events      
Averages and records for this station are not official NWS values.
T = Trace of Precipitation, MM = Missing Value Source: NWS Daily Summary

Daily Weather History Graph

Daily Weather History Graph

Search for Another Location

Airport or City:

Astronomy

Oct. 22, 2019 Rise Set
Actual Time 7:46 AM CDT 6:44 PM CDT
Civil Twilight 7:19 AM CDT 7:11 PM CDT
Nautical Twilight 6:49 AM CDT 7:41 PM CDT
Astronomical Twilight 6:18 AM CDT 8:12 PM CDT
Moon 1:05 AM CDT (10/22) 3:47 PM CDT (10/22)
Length of Visible Light 11h 51m
Length of Day
10h 57m
Last Quarter, 37% of the Moon is Illuminated
Oct 22
Last Quarter
Oct 27
New
Nov 4
First Quarter
Nov 12
Full
Nov 19
Last Quarter

Hourly Weather History & Observations

Time (CDT) Temp. Windchill Dew Point Humidity Pressure Visibility Wind Dir Wind Speed Gust Speed Precip Events Conditions
12:52 AM 39.0 °F 32.3 °F 23.0 °F 53% 30.02 in 10.0 mi West 10.4 mph - N/A   Clear
1:52 AM 39.0 °F 33.4 °F 23.0 °F 53% 30.03 in 10.0 mi WNW 8.1 mph - N/A   Clear
2:52 AM 34.0 °F 27.2 °F 23.0 °F 64% 30.05 in 10.0 mi West 8.1 mph - N/A   Clear
3:52 AM 37.0 °F 31.0 °F 24.1 °F 59% 30.05 in 10.0 mi West 8.1 mph - N/A   Clear
4:52 AM 37.9 °F 31.5 °F 24.1 °F 57% 30.06 in 10.0 mi West 9.2 mph - N/A   Clear
5:52 AM 36.0 °F 29.6 °F 24.1 °F 62% 30.07 in 10.0 mi West 8.1 mph - N/A   Clear
6:52 AM 36.0 °F 29.6 °F 25.0 °F 64% 30.09 in 10.0 mi West 8.1 mph - N/A   Clear
7:52 AM 35.1 °F 28.6 °F 25.0 °F 67% 30.10 in 10.0 mi WNW 8.1 mph - N/A   Clear
8:52 AM 42.1 °F 36.1 °F 27.0 °F 55% 30.11 in 10.0 mi WNW 10.4 mph - N/A   Clear
9:52 AM 50.0 °F - 28.0 °F 43% 30.13 in 10.0 mi WNW 13.8 mph - N/A   Clear
10:52 AM 55.0 °F - 28.9 °F 37% 30.13 in 10.0 mi NW 12.7 mph - N/A   Clear
11:52 AM 59.0 °F - 28.9 °F 32% 30.12 in 10.0 mi West 12.7 mph 23.0 mph N/A   Clear
12:52 PM 63.0 °F - 27.0 °F 26% 30.11 in 10.0 mi WNW 20.7 mph 29.9 mph N/A   Clear
1:52 PM 64.0 °F - 24.1 °F 22% 30.06 in 10.0 mi WNW 17.3 mph 27.6 mph N/A   Clear
2:52 PM 66.0 °F - 21.9 °F 19% 30.04 in 10.0 mi West 20.7 mph 29.9 mph N/A   Clear
3:52 PM 66.0 °F - 25.0 °F 21% 30.02 in 10.0 mi West 16.1 mph - N/A   Partly Cloudy
5:52 PM 64.9 °F - 27.0 °F 24% 29.99 in 10.0 mi West 11.5 mph - N/A   Mostly Cloudy
6:52 PM 57.0 °F - 28.9 °F 34% 29.98 in 10.0 mi Calm Calm - N/A   Clear
7:52 PM 48.9 °F - 30.9 °F 50% 29.98 in 10.0 mi East 3.5 mph - N/A   Clear
8:52 PM 43.0 °F - 30.9 °F 62% 29.98 in 9.0 mi Calm Calm - N/A   Clear
9:52 PM 42.1 °F 40.2 °F 30.9 °F 65% 29.97 in 10.0 mi ESE 3.5 mph - N/A   Clear
10:52 PM 39.9 °F - 32.0 °F 73% 29.94 in 10.0 mi Calm Calm - N/A   Clear
11:52 PM 51.1 °F - 30.9 °F 46% 29.90 in 10.0 mi SSW 13.8 mph - N/A   Clear